Time,TemperatureF,DewpointF,PressureIn,WindDirection,WindDirectionDegrees,WindSpeedMPH,WindSpeedGustMPH,Humidity,HourlyPrecipIn,Conditions,Clouds,dailyrainin,SoftwareType,DateUTC
2013-09-21 00:13:00,57.0,-99.9,-100.00,West,269,2.0,3.0,-999,0.00,,,0.01,,2013-09-21 05:13:00,
2013-09-21 00:23:00,57.0,-99.9,-100.00,West,269,2.0,3.0,-999,0.00,,,0.01,,2013-09-21 05:23:00,
2013-09-21 00:44:00,56.0,-99.9,-100.00,West,266,2.0,2.0,-999,0.00,,,0.01,,2013-09-21 05:44:00,
2013-09-21 00:53:00,56.0,-99.9,-100.00,West,266,2.0,2.0,-999,0.00,,,0.01,,2013-09-21 05:53:00,
2013-09-21 01:12:00,56.0,-99.9,-100.00,West,276,2.0,3.0,-999,0.00,,,0.01,,2013-09-21 06:12:00,
2013-09-21 01:22:00,56.0,-99.9,-100.00,West,276,2.0,3.0,-999,0.00,,,0.01,,2013-09-21 06:22:00,
2013-09-21 01:42:00,56.0,-99.9,-100.00,West,274,1.0,3.0,-999,0.00,,,0.01,,2013-09-21 06:42:00,
2013-09-21 01:53:00,56.0,-99.9,-100.00,West,274,1.0,3.0,-999,0.00,,,0.01,,2013-09-21 06:53:00,
2013-09-21 02:11:00,56.0,-99.9,-100.00,West,279,2.0,4.0,-999,0.00,,,0.00,,2013-09-21 07:11:00,
2013-09-21 02:22:00,56.0,-99.9,-100.00,West,279,2.0,4.0,-999,0.00,,,0.00,,2013-09-21 07:22:00,
2013-09-21 02:42:00,56.0,-99.9,-100.00,West,276,2.0,4.0,-999,0.00,,,0.00,,2013-09-21 07:42:00,
2013-09-21 02:52:00,56.0,-99.9,-100.00,West,276,2.0,4.0,-999,0.00,,,0.00,,2013-09-21 07:52:00,
2013-09-21 03:13:00,55.0,-99.9,-100.00,West,266,2.0,3.0,-999,0.00,,,0.00,,2013-09-21 08:13:00,
2013-09-21 03:22:00,55.0,-99.9,-100.00,West,266,2.0,3.0,-999,0.00,,,0.00,,2013-09-21 08:22:00,
2013-09-21 03:42:00,55.0,-99.9,-100.00,WNW,303,3.0,4.0,-999,0.00,,,0.00,,2013-09-21 08:42:00,
2013-09-21 03:52:00,55.0,-99.9,-100.00,WNW,303,3.0,4.0,-999,0.00,,,0.00,,2013-09-21 08:52:00,
2013-09-21 04:11:00,55.0,-99.9,-100.00,NW,315,4.0,6.0,-999,0.00,,,0.00,,2013-09-21 09:11:00,
2013-09-21 04:22:00,55.0,-99.9,-100.00,NW,315,4.0,6.0,-999,0.00,,,0.00,,2013-09-21 09:22:00,
2013-09-21 04:43:00,55.0,-99.9,-100.00,NW,309,5.0,7.0,-999,0.00,,,0.00,,2013-09-21 09:43:00,
2013-09-21 04:54:00,55.0,-99.9,-100.00,NW,309,5.0,7.0,-999,0.00,,,0.00,,2013-09-21 09:54:00,
2013-09-21 05:12:00,54.0,-99.9,-100.00,West,276,1.0,2.0,-999,0.00,,,0.00,,2013-09-21 10:12:00,
2013-09-21 05:23:00,54.0,-99.9,-100.00,West,276,1.0,2.0,-999,0.00,,,0.00,,2013-09-21 10:23:00,
2013-09-21 05:42:00,53.0,-99.9,-100.00,WNW,303,1.0,3.0,-999,0.00,,,0.00,,2013-09-21 10:42:00,
2013-09-21 05:53:00,53.0,-99.9,-100.00,WNW,303,1.0,3.0,-999,0.00,,,0.00,,2013-09-21 10:53:00,
2013-09-21 06:12:00,52.0,-99.9,-100.00,WNW,296,3.0,6.0,-999,0.00,,,0.00,,2013-09-21 11:12:00,
2013-09-21 06:23:00,52.0,-99.9,-100.00,WNW,296,3.0,6.0,-999,0.00,,,0.00,,2013-09-21 11:23:00,
2013-09-21 06:42:00,52.0,-99.9,-100.00,WNW,303,3.0,5.0,-999,0.00,,,0.00,,2013-09-21 11:42:00,
2013-09-21 06:52:00,52.0,-99.9,-100.00,WNW,303,3.0,5.0,-999,0.00,,,0.00,,2013-09-21 11:52:00,
2013-09-21 07:12:00,51.0,-99.9,-100.00,WNW,291,2.0,5.0,-999,0.00,,,0.00,,2013-09-21 12:12:00,
2013-09-21 07:22:00,51.0,-99.9,-100.00,WNW,291,2.0,5.0,-999,0.00,,,0.00,,2013-09-21 12:22:00,
2013-09-21 07:30:00,53.0,-99.9,-100.00,WNW,302,4.0,6.0,-999,0.00,,,0.00,,2013-09-21 12:30:00,
2013-09-21 07:42:00,51.0,-99.9,-100.00,WNW,292,2.0,4.0,-999,0.00,,,0.00,,2013-09-21 12:42:00,
2013-09-21 07:52:00,51.0,-99.9,-100.00,WNW,292,2.0,4.0,-999,0.00,,,0.00,,2013-09-21 12:52:00,
2013-09-21 08:11:00,53.0,-99.9,-100.00,WNW,302,4.0,6.0,-999,0.00,,,0.00,,2013-09-21 13:11:00,
2013-09-21 08:22:00,53.0,-99.9,-100.00,WNW,302,4.0,6.0,-999,0.00,,,0.00,,2013-09-21 13:22:00,
2013-09-21 09:11:00,59.0,-99.9,-100.00,NW,314,6.0,8.0,-999,0.00,,,0.00,,2013-09-21 14:11:00,
2013-09-21 09:22:00,59.0,-99.9,-100.00,NW,314,6.0,8.0,-999,0.00,,,0.00,,2013-09-21 14:22:00,
2013-09-21 09:42:00,60.0,-99.9,-100.00,NNW,329,9.0,12.0,-999,0.00,,,0.00,,2013-09-21 14:42:00,
2013-09-21 09:52:00,60.0,-99.9,-100.00,NNW,329,9.0,12.0,-999,0.00,,,0.00,,2013-09-21 14:52:00,
2013-09-21 10:12:00,61.0,-99.9,-100.00,NNW,329,7.0,12.0,-999,0.00,,,0.00,,2013-09-21 15:12:00,
2013-09-21 10:22:00,61.0,-99.9,-100.00,NNW,329,7.0,12.0,-999,0.00,,,0.00,,2013-09-21 15:22:00,
2013-09-21 10:45:00,62.0,-99.9,-100.00,NNW,341,9.0,12.0,-999,0.00,,,0.00,,2013-09-21 15:45:00,
2013-09-21 10:55:00,62.0,-99.9,-100.00,NNW,341,9.0,12.0,-999,0.00,,,0.00,,2013-09-21 15:55:00,
2013-09-21 11:14:00,63.0,-99.9,-100.00,NW,316,6.0,9.0,-999,0.00,,,-99.99,,2013-09-21 16:14:00,
2013-09-21 11:24:00,63.0,-99.9,-100.00,NW,316,6.0,9.0,-999,0.00,,,-99.99,,2013-09-21 16:24:00,
2013-09-21 11:43:00,64.0,-99.9,-100.00,NW,326,6.0,9.0,-999,0.00,,,0.00,,2013-09-21 16:43:00,
2013-09-21 11:54:00,64.0,-99.9,-100.00,NW,326,6.0,9.0,-999,0.00,,,0.00,,2013-09-21 16:54:00,
2013-09-21 12:12:00,65.0,-99.9,-100.00,NW,310,4.0,7.0,-999,0.00,,,0.00,,2013-09-21 17:12:00,
2013-09-21 12:23:00,65.0,-99.9,-100.00,NW,310,4.0,7.0,-999,0.00,,,0.00,,2013-09-21 17:23:00,
2013-09-21 12:43:00,65.0,-99.9,-100.00,NNW,348,12.0,15.0,-999,0.00,,,0.00,,2013-09-21 17:43:00,
2013-09-21 12:53:00,65.0,-99.9,-100.00,NNW,348,12.0,15.0,-999,0.00,,,0.00,,2013-09-21 17:53:00,
2013-09-21 13:13:00,66.0,-99.9,-100.00,North,358,9.0,16.0,-999,0.00,,,0.00,,2013-09-21 18:13:00,
2013-09-21 13:22:00,66.0,-99.9,-100.00,North,358,9.0,16.0,-999,0.00,,,0.00,,2013-09-21 18:22:00,
2013-09-21 13:42:00,68.0,-99.9,-100.00,NNW,337,7.0,11.0,-999,0.00,,,0.00,,2013-09-21 18:42:00,
2013-09-21 13:52:00,68.0,-99.9,-100.00,NNW,337,7.0,11.0,-999,0.00,,,0.00,,2013-09-21 18:52:00,
2013-09-21 14:12:00,69.0,-99.9,-100.00,North,5,8.0,11.0,-999,0.00,,,0.00,,2013-09-21 19:12:00,
2013-09-21 14:22:00,69.0,-99.9,-100.00,North,5,8.0,11.0,-999,0.00,,,0.00,,2013-09-21 19:22:00,
2013-09-21 14:42:00,70.0,-99.9,-100.00,North,-999,7.0,13.0,-999,0.00,,,0.00,,2013-09-21 19:42:00,
2013-09-21 14:53:00,70.0,-99.9,-100.00,North,-999,7.0,13.0,-999,0.00,,,0.00,,2013-09-21 19:53:00,
2013-09-21 15:12:00,72.0,-99.9,-100.00,NNW,348,5.0,9.0,-999,0.00,,,0.00,,2013-09-21 20:12:00,
2013-09-21 15:22:00,72.0,-99.9,-100.00,NNW,348,5.0,9.0,-999,0.00,,,0.00,,2013-09-21 20:22:00,
2013-09-21 15:43:00,74.0,-99.9,-100.00,NNW,347,4.0,8.0,-999,0.00,,,0.00,,2013-09-21 20:43:00,
2013-09-21 15:52:00,74.0,-99.9,-100.00,NNW,347,4.0,8.0,-999,0.00,,,0.00,,2013-09-21 20:52:00,
2013-09-21 16:12:00,73.0,-99.9,-100.00,NW,315,6.0,11.0,-999,0.00,,,0.00,,2013-09-21 21:12:00,
2013-09-21 16:22:00,73.0,-99.9,-100.00,NW,315,6.0,11.0,-999,0.00,,,0.00,,2013-09-21 21:22:00,
2013-09-21 16:45:00,74.0,-99.9,-100.00,NW,325,6.0,9.0,-999,0.00,,,0.00,,2013-09-21 21:45:00,
2013-09-21 17:14:00,72.0,-99.9,-100.00,WNW,290,3.0,6.0,-999,0.00,,,0.00,,2013-09-21 22:14:00,
2013-09-21 17:24:00,72.0,-99.9,-100.00,WNW,290,3.0,6.0,-999,0.00,,,0.00,,2013-09-21 22:24:00,
2013-09-21 17:43:00,73.0,-99.9,-100.00,West,276,2.0,5.0,-999,0.00,,,0.00,,2013-09-21 22:43:00,
2013-09-21 17:53:00,73.0,-99.9,-100.00,West,276,2.0,5.0,-999,0.00,,,0.00,,2013-09-21 22:53:00,
2013-09-21 18:13:00,74.0,-99.9,-100.00,WNW,301,3.0,6.0,-999,0.00,,,0.00,,2013-09-21 23:13:00,
2013-09-21 18:23:00,74.0,-99.9,-100.00,WNW,301,3.0,6.0,-999,0.00,,,0.00,,2013-09-21 23:23:00,
2013-09-21 18:42:00,74.0,-99.9,-100.00,NW,311,2.0,4.0,-999,0.00,,,0.00,,2013-09-21 23:42:00,
2013-09-21 18:53:00,74.0,-99.9,-100.00,NW,311,2.0,4.0,-999,0.00,,,0.00,,2013-09-21 23:53:00,
2013-09-21 19:12:00,70.0,-99.9,-100.00,West,273,0.0,2.0,-999,0.00,,,0.00,,2013-09-22 00:12:00,
2013-09-21 19:23:00,70.0,-99.9,-100.00,West,273,0.0,2.0,-999,0.00,,,0.00,,2013-09-22 00:23:00,
2013-09-21 19:43:00,65.0,-99.9,-100.00,West,266,1.0,2.0,-999,0.00,,,0.00,,2013-09-22 00:43:00,
2013-09-21 19:52:00,65.0,-99.9,-100.00,West,266,1.0,2.0,-999,0.00,,,0.00,,2013-09-22 00:52:00,
2013-09-21 20:12:00,62.0,-99.9,-100.00,West,264,1.0,2.0,-999,0.00,,,0.00,,2013-09-22 01:12:00,
2013-09-21 20:22:00,62.0,-99.9,-100.00,West,264,1.0,2.0,-999,0.00,,,0.00,,2013-09-22 01:22:00,
2013-09-21 20:42:00,60.0,-99.9,-100.00,West,268,2.0,2.0,-999,0.00,,,0.00,,2013-09-22 01:42:00,
2013-09-21 20:52:00,60.0,-99.9,-100.00,West,268,2.0,2.0,-999,0.00,,,0.00,,2013-09-22 01:52:00,
2013-09-21 21:12:00,60.0,-99.9,-100.00,West,260,3.0,3.0,-999,0.00,,,0.00,,2013-09-22 02:12:00,
2013-09-21 21:22:00,60.0,-99.9,-100.00,West,260,3.0,3.0,-999,0.00,,,0.00,,2013-09-22 02:22:00,
2013-09-21 21:42:00,60.0,-99.9,-100.00,West,260,3.0,4.0,-999,0.00,,,0.00,,2013-09-22 02:42:00,
2013-09-21 21:52:00,60.0,-99.9,-100.00,West,260,3.0,4.0,-999,0.00,,,0.00,,2013-09-22 02:52:00,
2013-09-21 22:12:00,59.0,-99.9,-100.00,South,169,0.0,1.0,-999,0.00,,,0.00,,2013-09-22 03:12:00,
2013-09-21 22:22:00,59.0,-99.9,-100.00,South,169,0.0,1.0,-999,0.00,,,0.00,,2013-09-22 03:22:00,
2013-09-21 22:30:00,56.0,-99.9,-100.00,WSW,249,1.0,3.0,-999,0.00,,,0.00,,2013-09-22 03:30:00,
2013-09-21 22:45:00,58.0,-99.9,-100.00,WSW,245,3.0,4.0,-999,0.00,,,0.00,,2013-09-22 03:45:00,
2013-09-21 22:54:00,58.0,-99.9,-100.00,WSW,245,3.0,4.0,-999,0.00,,,0.00,,2013-09-22 03:54:00,
2013-09-21 23:03:00,-999.0,-99.9,-100.00,WSW,249,1.0,3.0,-999,-99.99,,,-99.99,,2013-09-22 04:03:00,
2013-09-21 23:15:00,56.0,-99.9,-100.00,WSW,249,1.0,3.0,-999,0.00,,,0.00,,2013-09-22 04:15:00,
2013-09-21 23:24:00,56.0,-99.9,-100.00,WSW,249,1.0,3.0,-999,0.00,,,0.00,,2013-09-22 04:24:00,
2013-09-21 23:54:00,55.0,-99.9,-100.00,West,273,1.0,2.0,-999,0.00,,,0.00,,2013-09-22 04:54:00,